This is the latest recevied weather packets stored in our database for station/object LX0APE-4. If no packets are shown the sender has not sent any weather packets the latest 1 day(s).
| Time | Temp. | Humidity | Pressure | Rain* | Wind** | Luminosity | Snow |
|---|---|---|---|---|---|---|---|
| 1777968113 | 18.33° C | 65% | 5005.9 hPa | 0 mm | 0 m/s | - | - |
| 1777967813 | 18.33° C | 66% | 5006 hPa | 0 mm | 0 m/s | - | - |
| 1777967513 | 18.33° C | 66% | 5006.1 hPa | 0 mm | 0 m/s | - | - |
| 1777967213 | 17.78° C | 67% | 5006.2 hPa | 0 mm | 0 m/s | - | - |
| 1777966913 | 17.78° C | 68% | 5006.1 hPa | 0 mm | 0 m/s | - | - |
| 1777966613 | 17.22° C | 69% | 5006.2 hPa | 0 mm | 0 m/s | - | - |
| 1777966313 | 17.22° C | 69% | 5006.3 hPa | 0 mm | 0 m/s | - | - |
| 1777966013 | 17.22° C | 70% | 5006.3 hPa | 0 mm | 0 m/s | - | - |
| 1777965713 | 16.67° C | 70% | 5006.4 hPa | 0 mm | 0 m/s | - | - |
| 1777965413 | 16.67° C | 71% | 5006.5 hPa | 0 mm | 0 m/s | - | - |
| 1777965113 | 16.67° C | 72% | 5006.4 hPa | 0 mm | 0 m/s | - | - |
| 1777964813 | 16.11° C | 73% | 5006.6 hPa | 0 mm | 0 m/s | - | - |
| 1777964513 | 16.11° C | 74% | 5006.6 hPa | 0 mm | 0 m/s | - | - |
| 1777964213 | 15.56° C | 75% | 5006.6 hPa | 0 mm | 0 m/s | - | - |
| 1777963913 | 15° C | 76% | 5006.5 hPa | 0 mm | 0 m/s | - | - |
| 1777963613 | 15° C | 75% | 5006.5 hPa | 0 mm | 0 m/s | - | - |
| 1777963313 | 15° C | 75% | 5006.6 hPa | 0 mm | 0 m/s | - | - |
| 1777963013 | 14.44° C | 75% | 5006.7 hPa | 0 mm | 0 m/s | - | - |
| 1777962713 | 14.44° C | 76% | 5006.7 hPa | 0 mm | 0 m/s | - | - |
| 1777962413 | 14.44° C | 75% | 5006.6 hPa | 0 mm | 0 m/s | - | - |
| 1777962113 | 14.44° C | 75% | 5006.6 hPa | 0 mm | 0 m/s | - | - |
| 1777961813 | 15° C | 75% | 5006.7 hPa | 0 mm | 0 m/s | - | - |
| 1777961513 | 15° C | 76% | 5006.6 hPa | 0 mm | 0 m/s | - | - |
| 1777961220 | 14.44° C | 76% | 5006.7 hPa | 0 mm | 0 m/s | - | - |
| 1777961213 | 14.44° C | 76% | 5006.7 hPa | 0 mm | 0 m/s | - | - |
* Rain latest hour (hover to see other rain measurements)
** Current wind speed in m/s (hover to see current wind gust speed)